UWE-3

Last updated on Thu Oct 30 2025 00:03:10 GMT+0000 (Coordinated Universal Time)

1 39446U 13066AG 25302.37214463 .00007823 00000+0 71250-3 0 9991 2 39446 97.8406 252.7334 0052334 10.5967 349.6343 14.94382400643070
UTC large
Height (km)
Speed (km/s)
/
Latitude / Longitude
Inclination (degrees)
Orbital Period (minutes)
Azimuth
Elevation
Range (km)
Doppler Factor

Next 0 passes for location: London (51.5072 / 0.1276)

Sorry there are no passes over London.